Location: Lake of the Woods (North-East)
(49.6672°N, 94.8656°W)
Time: 04:22:14
(UTC-06:00)

Daily predictions for brighter satellites

Satellite Brightness Start Highest point End
(mag) Time Altitude Azimuth Time Altitude Azimuth Time Altitude Azimuth
Cosmos 2344 4.5 02:19:15 49° NNE 02:19:15 49° NNE 02:26:26 10° NE
ATLAS 5 CENTAUR R/B 4.4 03:22:37 15° ESE 03:22:37 15° ESE 03:24:54 10° ENE
Cosmos 1943 Rocket 4.4 03:28:15 15° ESE 03:30:04 17° E 03:33:33 10° ENE
ADEOS II 2.9 04:01:10 10° NNE 04:06:17 48° E 04:07:16 43° SE
USA 234 4.3 04:02:09 10° ENE 04:08:09 37° SE 04:10:14 30° S
Lacrosse 5 3.5 04:10:00 24° SE 04:10:37 25° SE 04:14:45 10° ENE
ADEOS Rocket 3.5 04:07:07 10° N 04:13:03 51° NW 04:13:03 51° NW
Okean O Rocket 2.9 04:10:22 10° NNE 04:13:00 36° NNE 04:13:00 36° NNE
CZ-2D R/B 3.9 04:19:41 10° N 04:21:44 20° NNW 04:21:44 20° NNW
Cosmos 2278 Rocket 4.1 04:25:17 17° NNW 04:25:17 17° NNW 04:28:17 10° N
Cosmos 2369 Rocket 2.1 04:25:33 75° S 04:26:00 83° ESE 04:31:43 10° NNE
Resurs 1-4 Rocket 4.0 04:21:50 10° N 04:23:43 18° NNW 04:23:43 18° NNW
Cosmos 407 Rocket 3.4 04:28:00 70° NNW 04:28:39 89° ENE 04:34:00 10° SSE
IRAS Rocket 4.1 04:25:57 10° NNE 04:31:29 90° SW 04:32:13 68° SSW
Cosmos 676 Rocket 4.2 04:27:03 10° NNW 04:32:21 71° ENE 04:37:41 10° SSE
Lacrosse 4 Rocket 3.9 04:35:44 12° N 04:35:44 12° N 04:36:31 10° N
COSMO-SKYMED 1 4.5 04:31:24 10° SE 04:35:10 30° ENE 04:38:57 10° N
Nadezhda 2 Rocket 4.4 04:29:28 10° N 04:35:37 82° E 04:41:45 10° S
Cosmos 972 Rocket 4.1 04:35:00 54° S 04:36:09 75° ESE 04:41:45 10° NNE
Cosmos 2266 Rocket 3.8 04:31:30 10° NNW 04:37:37 64° W 04:38:22 59° SW
Cosmos 1833 4.0 04:41:47 38° NW 04:44:02 76° WSW 04:49:37 10° SSE
Cosmos 1933 3.5 04:49:18 65° N 04:49:18 65° N 04:52:50 10° N
Cosmos 1140 Rocket 3.9 04:44:24 10° NNW 04:49:37 62° ENE 04:54:48 10° SE
IRS-1C Rocket 4.0 04:47:41 10° N 04:52:55 64° WNW 04:53:44 55° WSW
Cosmos 1867 3.5 04:52:15 58° W 04:53:07 68° NW 04:58:36 10° NE
Lacrosse 5 rocket 2.2 04:56:58 33° N 04:57:25 34° NNE 05:00:45 10° E
CZ-4B R/B 4.2 04:54:10 10° N 04:56:29 28° NNW 04:56:29 28° NNW
ERS-2 2.4 04:54:59 10° NNE 04:58:08 60° N 04:58:08 60° N
Sich 1 Rocket 3.5 04:54:47 10° NNW 04:59:20 68° W 05:03:47 10° S
Okean 1-7 4.2 04:57:11 10° SSE 05:01:12 42° E 05:05:15 10° NNE
Cosmos 1908 Rocket 3.5 04:57:19 10° NNW 05:01:47 67° W 05:06:13 10° S
PSLV R/B 3.7 04:59:09 10° N 05:02:54 53° NW 05:02:54 53° NW
ATLAS 5 CENTAUR R/B 1.8 05:04:11 41° SW 05:05:55 85° SE 05:11:15 10° NE
MOS 1 Rocket 4.1 05:01:01 10° N 05:06:04 40° WNW 05:06:18 39° WNW
Cosmos 1782 Rocket 3.5 05:02:49 10° N 05:07:20 86° ENE 05:11:47 10° S
Tiangong 1 3.7 05:07:42 11° SSE 05:07:42 11° SSE 05:08:39 10° SE
Okean-O 2.7 05:04:35 10° NNE 05:09:03 79° ESE 05:13:21 11° S
CZ-4B R/B 3.4 05:04:23 10° N 05:09:50 54° WNW 05:12:01 34° SW
Meteor 2-10 Rocket 3.6 05:05:15 10° S 05:10:13 72° E 05:15:18 10° NNE
Cosmos 921 Rocket 3.7 05:11:17 36° NW 05:11:17 36° NW 05:14:48 10° N
Cosmos 2263 4.1 05:09:19 37° SW 05:11:31 66° WNW 05:17:08 10° NNE
Cosmos 1943 Rocket 2.0 05:09:50 26° SSW 05:13:03 85° WNW 05:18:40 10° NNE
Cosmos 1850 Rocket 4.4 05:09:11 10° NNW 05:14:32 66° ENE 05:19:49 10° SE
Cosmos 1624 Rocket 4.1 05:13:27 37° WSW 05:15:22 58° WNW 05:20:40 10° NNE
ATLAS CENTAUR R/B 4.2 05:15:18 27° WSW 05:16:35 29° SW 05:27:24 10° S
Cosmos 2056 Rocket 3.5 05:14:51 36° SW 05:16:47 59° WNW 05:21:58 10° NNE
Meteor 1-28 Rocket 4.2 05:13:41 10° SSE 05:17:16 48° ENE 05:20:55 10° N
Meteor 1-14 Rocket 4.2 05:12:02 10° NNW 05:17:55 78° W 05:23:38 10° S
Cosmos 1244 Rocket 4.4 05:14:53 10° NNW 05:21:04 63° W 05:27:09 10° S
Cosmos 1954 Rocket 4.0 05:17:25 10° NNW 05:22:39 59° WSW 05:27:51 10° S
Cosmos 1782 4.5 05:19:06 10° SSE 05:22:44 35° E 05:26:23 10° NNE
SKYMED 2 3.6 05:18:44 10° SSE 05:23:04 82° ENE 05:27:27 10° NNW
CZ-4C R/B 3.1 05:19:30 10° SSW 05:24:38 49° ESE 05:30:27 10° NE
NOAA 6 4.3 05:21:52 10° NNE 05:27:04 72° ESE 05:32:11 10° S
Okean 2 Rocket 2.9 05:25:44 10° NNW 05:30:09 76° W 05:34:32 10° S
SL-08 R/B 4.4 05:30:20 10° NNW 05:36:37 74° W 05:42:56 10° S
Cosmos 1606 4.2 05:35:38 10° SSE 05:39:16 40° E 05:42:58 10° NNE
Meteor 1-26 Rocket 4.2 05:38:47 10° SSW 05:44:23 61° WNW 05:49:57 10° N
ADEOS II 2.9 05:41:18 10° N 05:45:49 29° WNW 05:48:14 21° WSW
Cosmos 1703 Rocket 3.7 05:41:48 10° SSW 05:45:59 47° WNW 05:50:15 10° N
Thor Agena Rocket 4.0 05:41:34 10° SSW 05:46:23 37° W 05:51:11 10° NNW
Meteor 1-31 Rocket 3.2 05:43:46 10° N 05:47:28 40° WNW 05:50:24 15° SW
Meteor 1-25 Rocket 4.3 05:42:13 10° NNW 05:47:59 64° W 05:53:45 10° S
Cosmos 2297 Rocket 3.3 05:42:53 10° NNW 05:48:21 46° NE 05:53:46 10° SE
DMSP B5D1-3 4.4 05:44:11 10° S 05:49:16 76° WSW 05:54:25 10° NNW
Cosmos 2151 Rocket 3.7 05:44:43 10° N 05:49:17 84° E 05:53:47 10° S
Okean O Rocket 3.3 05:47:58 10° NNW 05:50:29 16° NW 05:50:29 16° NW
USA 234 3.2 05:45:02 10° ENE 05:51:36 84° NNW 05:57:37 13° WSW
S3M 4.0 05:45:37 10° SSW 05:51:57 78° W 05:58:16 10° N
CZ-4 R/B 4.1 05:49:16 10° NE 05:52:44 24° E 05:56:08 10° SSE
Lacrosse 5 1.8 05:49:14 17° WSW 05:53:09 84° NNW 05:58:16 10° NE
Cosmos 1452 Rocket 3.5 05:52:54 10° SW 05:58:08 61° WNW 06:03:25 10° NNE
Cosmos 1553 Rocket 4.0 05:53:41 10° SSW 05:59:50 67° WNW 06:06:09 10° N
Cosmos 2219 3.5 05:55:54 10° NW 06:01:19 46° WSW 06:06:40 10° S
Cosmos 1741 Rocket 4.1 06:00:06 10° NNW 06:05:12 53° WSW 06:10:17 10° S
Meteor 1-11 Rocket 4.1 06:00:39 10° N 06:06:39 75° ENE 06:12:34 10° SSE
Cosmos 2227 Rocket 2.4 06:02:38 10° NNW 06:08:21 76° ENE 06:14:02 10° SE
Cosmos 2369 Rocket 3.4 06:07:22 15° W 06:10:44 24° NW 06:15:17 10° NNE
COSMO-SKYMED 1 3.2 06:07:18 10° SSW 06:11:15 34° W 06:15:15 10° NNW
Meteor 1-10 Rocket 4.2 06:08:22 10° SSW 06:13:56 86° W 06:19:40 10° NNE
Cosmos 2221 Rocket 4.3 06:10:16 10° SW 06:14:24 33° WNW 06:18:33 10° N
Meteor 2-11 Rocket 4.4 06:11:21 10° SSW 06:17:28 78° W 06:23:39 10° N
Cosmos 1656 Rocket 3.8 06:14:01 10° SW 06:19:38 58° WNW 06:25:15 10° NNE
ATLAS 3B R/B 3.6 06:15:18 10° SSW 06:22:40 59° ESE 06:29:45 10° NE
USA 81 4.1 06:18:51 10° SSW 06:24:02 56° W 06:29:15 10° N
Abrixas 2.5 06:22:05 13° W 06:24:36 70° S 06:27:30 10° E
Cosmos 1709 Rocket 3.9 06:20:02 10° NNW 06:26:09 77° W 06:32:15 10° S
Cosmos 1536 3.2 06:24:30 10° N 06:28:30 68° E 06:32:28 10° SSE
SMAP 3.9 06:31:37 10° NNE 06:36:13 56° E 06:40:47 10° S
Lacrosse 5 rocket 1.1 06:33:12 10° WNW 06:36:47 62° SW 06:40:21 10° SE
Okean 1-7 4.2 06:35:39 10° WSW 06:39:00 22° WNW 06:42:22 10° NNW
YAOGAN 1 3.7 06:35:17 10° NNE 06:39:31 50° E 06:43:44 10° S
Helios 1B rocket 3.2 06:35:50 10° SSE 06:39:53 59° ENE 06:43:58 10° N
Cosmos 2315 Rocket 4.1 06:35:19 10° S 06:41:42 83° W 06:48:06 10° N
